Waarnemingen

Advertentie
Mijn weer
St-Hubert, België (6476): temperatuur & dauwpunt: 12.10.2018 03:00:00 - 18.10.2018 03:00:00 (CEST)St-Hubert, België (6476): windsnelheid & windstoten: 12.10.2018 03:00:00 - 18.10.2018 03:00:00 (CEST)St-Hubert, België (6476): windrichting: 12.10.2018 03:00:00 - 18.10.2018 03:00:00 (CEST)St-Hubert, België (6476): luchtdruk: 12.10.2018 03:00:00 - 18.10.2018 03:00:00 (CEST)St-Hubert, België (6476): zicht: 12.10.2018 03:00:00 - 18.10.2018 03:00:00 (CEST)
Datum & Tijd tt [°C] td [°C] ff [km/u] ff [kn] fx [km/u] fx [kn] dd ppp [hPa] vv [km]
18.10.2018 03:00:00 - - - - - - - - -
18.10.2018 02:00:00 10,9 10,2 11 6 - - ONO 1021,3 1,6
18.10.2018 01:00:00 11,3 10,4 11 6 18 10 ONO 1021,2 2,1
18.10.2018 00:00:00 12,2 10,8 14 8 18 10 ONO 1021,1 3,2
17.10.2018 23:00:00 12,3 10,9 11 6 - - ONO 1021,0 3,1
17.10.2018 22:00:00 12,7 11,0 11 6 18 10 ONO 1020,7 4,0
17.10.2018 21:00:00 13,2 11,0 11 6 18 10 ONO 1020,2 5
17.10.2018 20:00:00 14,0 10,9 11 6 - - ONO 1019,6 -
17.10.2018 19:00:00 16,0 9,1 4 2 14 8 - 1018,6 30
17.10.2018 18:00:00 18,0 8,5 7 4 18 10 N 1018,1 28
17.10.2018 17:00:00 18,8 9,5 14 8 - - NW 1017,7 29
17.10.2018 16:00:00 19,5 8,0 4 2 11 6 ONO 1017,6 40
17.10.2018 15:00:00 19,6 9,9 4 2 11 6 O 1017,6 25
17.10.2018 14:00:00 19,5 9,8 4 2 - - WZW 1018,0 30
17.10.2018 13:00:00 17,9 9,7 7 4 11 6 WZW 1018,7 28
17.10.2018 12:00:00 16,9 9,7 7 4 7 4 WZW 1019,0 27
17.10.2018 11:00:00 16,9 8,5 4 2 - - W 1018,9 30
17.10.2018 10:00:00 14,4 9,7 7 4 7 4 Z 1019,3 30
17.10.2018 09:00:00 11,0 7,7 4 2 11 6 O 1020,0 40
17.10.2018 08:00:00 11,1 7,0 11 6 - - Z 1019,8 40
17.10.2018 07:00:00 11,0 7,2 11 6 14 8 ZZO 1019,7 35
17.10.2018 06:00:00 12,3 7,1 11 6 18 10 ZZO 1019,4 40
17.10.2018 05:00:00 13,0 6,8 14 8 - - ZZO 1019,2 40
17.10.2018 04:00:00 12,4 7,3 14 8 18 10 ZZO 1019,5 40
17.10.2018 03:00:00 14,1 7,9 14 8 18 10 ZO 1019,3 40
17.10.2018 02:00:00 12,5 7,4 11 6 - - ZZO 1020,1 40
17.10.2018 01:00:00 12,1 7,3 11 6 14 8 ZZO 1020,3 40
17.10.2018 00:00:00 13,4 7,5 11 6 11 6 ZO 1020,2 40
16.10.2018 23:00:00 14,8 8,3 7 4 - - ZZO 1020,1 35
16.10.2018 22:00:00 14,5 7,4 7 4 11 6 ZZO 1020,1 40
16.10.2018 21:00:00 14,3 7,6 7 4 11 6 ZO 1020,0 45
16.10.2018 20:00:00 15,1 7,3 7 4 - - ZO 1019,6 45
16.10.2018 19:00:00 15,1 7,4 7 4 11 6 ZO 1019,2 45
16.10.2018 18:00:00 17,9 7,3 7 4 22 12 Z 1018,5 40
16.10.2018 17:00:00 19,7 7,9 11 6 - - ZO 1018,0 40
16.10.2018 16:00:00 20,5 5,9 14 8 29 16 ZO 1017,8 30
16.10.2018 15:00:00 20,8 6,2 18 10 32 18 OZO 1017,6 30
16.10.2018 14:00:00 20,4 8,1 14 8 - - ZO 1018,0 35
16.10.2018 13:00:00 19,5 8,3 18 10 25 14 OZO 1018,3 40
16.10.2018 12:00:00 19,3 6,6 18 10 25 14 O 1018,2 35
16.10.2018 11:00:00 18,2 9,0 11 6 - - O 1018,3 35
16.10.2018 10:00:00 15,0 8,4 11 6 14 8 O 1018,8 40
16.10.2018 09:00:00 15,4 6,0 7 4 11 6 ONO 1018,5 45
16.10.2018 08:00:00 14,4 5,8 7 4 - - O 1018,2 45
16.10.2018 07:00:00 10,7 5,5 7 4 7 4 NO 1019,0 40
16.10.2018 06:00:00 14,8 5,7 7 4 7 4 ONO 1017,8 45
16.10.2018 05:00:00 12,7 6,1 7 4 - - ONO 1018,1 45
16.10.2018 04:00:00 11,1 6,2 7 4 11 6 O 1018,5 40
16.10.2018 03:00:00 14,6 6,9 7 4 11 6 O 1017,5 45
16.10.2018 02:00:00 14,2 6,3 7 4 - - O 1017,2 45
16.10.2018 01:00:00 15,4 6,6 7 4 14 8 O 1016,6 45
16.10.2018 00:00:00 15,5 6,8 7 4 11 6 O 1016,4 45
15.10.2018 23:00:00 14,8 7,3 7 4 - - O 1016,5 40
15.10.2018 22:00:00 14,2 7,4 7 4 11 6 O 1016,2 45
15.10.2018 21:00:00 15,2 7,1 7 4 7 4 O 1015,8 45
15.10.2018 20:00:00 13,8 7,7 7 4 - - ONO 1016,0 45
15.10.2018 19:00:00 15,2 8,6 4 2 11 6 ONO 1015,0 45
15.10.2018 18:00:00 19,0 8,2 7 4 14 8 ZZW 1013,7 40
15.10.2018 17:00:00 20,1 7,3 7 4 - - Z 1013,1 35
15.10.2018 16:00:00 19,9 8,1 11 6 25 14 WZW 1012,9 30
15.10.2018 15:00:00 20,0 7,7 18 10 29 16 W 1012,8 35
15.10.2018 14:00:00 20,0 8,0 11 6 - - ZW 1012,6 40
15.10.2018 13:00:00 19,6 8,4 11 6 25 14 ZZW 1012,9 30
15.10.2018 12:00:00 18,2 8,6 14 8 22 12 Z 1013,0 35
15.10.2018 11:00:00 17,7 7,5 11 6 - - ZZW 1012,7 35
15.10.2018 10:00:00 16,0 7,3 14 8 22 12 Z 1012,8 30
15.10.2018 09:00:00 14,0 6,4 11 6 22 12 Z 1012,6 35
15.10.2018 08:00:00 13,9 6,2 14 8 - - Z 1012,0 45
15.10.2018 07:00:00 13,5 6,3 14 8 22 12 ZZO 1011,7 45
15.10.2018 06:00:00 14,0 6,6 14 8 29 16 Z 1011,3 40
15.10.2018 05:00:00 14,6 6,5 18 10 - - Z 1010,9 45
15.10.2018 04:00:00 14,8 6,1 18 10 29 16 Z 1010,6 45
15.10.2018 03:00:00 15,0 6,2 14 8 29 16 Z 1010,8 45
15.10.2018 02:00:00 15,0 6,1 18 10 - - Z 1010,8 45
15.10.2018 01:00:00 14,7 5,7 18 10 32 18 Z 1010,6 45
15.10.2018 00:00:00 15,2 5,8 18 10 29 16 Z 1010,3 45
14.10.2018 23:00:00 15,4 6,1 18 10 - - Z 1010,2 45
14.10.2018 22:00:00 16,0 5,9 14 8 25 14 Z 1009,7 45
14.10.2018 21:00:00 16,2 6,1 14 8 25 14 Z 1009,5 45
14.10.2018 20:00:00 17,1 5,6 14 8 - - Z 1009,0 45
14.10.2018 19:00:00 17,6 5,7 14 8 29 16 Z 1008,7 45
14.10.2018 18:00:00 19,1 4,9 18 10 40 21 Z 1008,0 40
14.10.2018 17:00:00 20,1 4,9 22 12 - - Z 1007,8 40
14.10.2018 16:00:00 21,2 5,2 25 14 50 27 Z 1007,8 45
14.10.2018 15:00:00 20,9 5,4 29 16 61 33 Z 1007,8 35
14.10.2018 14:00:00 20,6 6,5 29 16 - - Z 1008,3 35
14.10.2018 13:00:00 19,6 6,7 32 18 54 29 Z 1009,1 35
14.10.2018 12:00:00 18,1 7,4 32 18 54 29 Z 1009,6 40
14.10.2018 11:00:00 17,0 6,9 25 14 - - Z 1010,2 35
14.10.2018 10:00:00 15,0 9,2 18 10 32 18 Z 1010,8 30
14.10.2018 09:00:00 13,9 9,3 18 10 36 19 Z 1011,2 35
14.10.2018 08:00:00 12,8 9,2 18 10 - - Z 1011,2 40
14.10.2018 07:00:00 13,3 9,6 18 10 29 16 Z 1011,4 40
14.10.2018 06:00:00 13,6 9,3 18 10 32 18 Z 1011,8 45
14.10.2018 05:00:00 13,8 9,5 22 12 - - ZZO 1012,1 45
14.10.2018 04:00:00 14,1 9,6 18 10 29 16 ZZO 1012,8 45
14.10.2018 03:00:00 14,7 9,8 18 10 25 14 ZZO 1013,3 45
14.10.2018 02:00:00 14,9 9,9 14 8 - - ZZO 1013,8 45
14.10.2018 01:00:00 15,7 10,1 14 8 25 14 Z 1014,1 45
14.10.2018 00:00:00 16,0 10,4 14 8 25 14 Z 1014,7 45
13.10.2018 23:00:00 16,5 10,3 14 8 - - Z 1015,1 45
13.10.2018 22:00:00 16,7 10,6 18 10 29 16 ZZO 1015,0 45
13.10.2018 21:00:00 17,2 11,0 18 10 32 18 ZZO 1015,0 45
13.10.2018 20:00:00 18,3 11,0 18 10 - - ZO 1015,1 45
13.10.2018 19:00:00 18,4 11,6 14 8 29 16 ZZO 1015,3 45
13.10.2018 18:00:00 20,5 11,5 18 10 32 18 ZZO 1015,0 35
13.10.2018 17:00:00 21,4 11,7 22 12 - - ZZO 1015,5 35
13.10.2018 16:00:00 22,0 11,6 18 10 40 21 ZZO 1016,0 30
13.10.2018 15:00:00 21,3 11,7 22 12 40 21 ZZO 1016,9 35
13.10.2018 14:00:00 20,5 11,9 22 12 - - Z 1017,8 30
13.10.2018 13:00:00 19,3 13,1 22 12 32 18 ZZO 1018,9 35
13.10.2018 12:00:00 18,1 12,7 18 10 25 14 ZZO 1019,5 28
13.10.2018 11:00:00 17,2 12,5 18 10 - - ZO 1020,0 35
13.10.2018 10:00:00 15,7 12,0 18 10 29 16 ZZO 1020,4 30
13.10.2018 09:00:00 13,8 11,4 18 10 29 16 ZO 1020,9 30
13.10.2018 08:00:00 13,6 11,1 18 10 - - ZO 1021,1 35
13.10.2018 07:00:00 14,2 11,4 14 8 22 12 ZO 1021,1 40
13.10.2018 06:00:00 13,9 11,2 11 6 14 8 ZZO 1021,8 40
13.10.2018 05:00:00 14,2 11,4 11 6 - - ZZO 1021,8 40
13.10.2018 04:00:00 14,9 11,7 18 10 29 16 ZZO 1021,4 45
13.10.2018 03:00:00 15,6 11,9 18 10 25 14 Z 1021,3 35
13.10.2018 02:00:00 15,9 12,1 18 10 - - Z 1021,3 45
13.10.2018 01:00:00 16,6 12,1 18 10 29 16 Z 1021,3 40
13.10.2018 00:00:00 16,7 11,7 18 10 29 16 Z 1021,5 45
12.10.2018 23:00:00 17,1 11,7 18 10 - - Z 1021,6 45
12.10.2018 22:00:00 17,4 11,8 18 10 25 14 Z 1021,3 45
12.10.2018 21:00:00 17,2 12,3 14 8 22 12 Z 1021,1 45
12.10.2018 20:00:00 17,6 12,7 14 8 - - Z 1020,8 45
12.10.2018 19:00:00 18,4 12,8 14 8 25 14 Z 1020,1 45
12.10.2018 18:00:00 19,0 13,3 14 8 25 14 Z 1019,9 30
12.10.2018 17:00:00 19,8 13,7 14 8 - - Z 1019,7 35
12.10.2018 16:00:00 19,6 13,8 18 10 36 19 Z 1019,6 30
12.10.2018 15:00:00 19,9 14,0 14 8 32 18 Z 1019,4 40
12.10.2018 14:00:00 19,7 13,3 18 10 - - Z 1019,6 35
12.10.2018 13:00:00 18,0 12,8 22 12 32 18 ZZW 1019,8 35
12.10.2018 12:00:00 17,8 12,8 14 8 29 16 ZZW 1019,9 40
12.10.2018 11:00:00 16,5 12,0 18 10 - - Z 1019,9 35
12.10.2018 10:00:00 14,5 11,7 14 8 25 14 Z 1020,0 45
12.10.2018 09:00:00 13,9 11,4 18 10 29 16 Z 1019,5 45
12.10.2018 08:00:00 13,1 11,2 18 10 - - Z 1018,9 45
12.10.2018 07:00:00 12,9 11,0 18 10 25 14 Z 1018,3 45
12.10.2018 06:00:00 12,6 10,9 18 10 22 12 Z 1017,8 45
12.10.2018 05:00:00 12,5 10,8 14 8 - - Z 1017,3 45
12.10.2018 04:00:00 13,1 11,3 18 10 25 14 Z 1016,5 40
12.10.2018 03:00:00 14,1 11,5 14 8 29 16 ZW 1016,4 45

tt = temperatuur
td = dauwpunt
ff = windsnelheid
fx = windstoten
dd = windrichting
ppp = luchtdruk
vv = zicht

Weerstations in de omgeving